カタログに戻る

BREEZE-M DEB

運用中HEO
NORAD 38569·DEBRIS·🇷🇺 Russia

打ち上げ Mar 14, 2008 から Baikonur Cosmodrome

Loading…

次のパス (今後24時間)

TLE

最新Source: Space-Track

元期: Sep 6, 2026, 17:46 UTC

1 38569U 08011Q   26249.74054671  .00000053  00000-0  00000-0 0  9996
2 38569  48.9105 147.7050 6302961  89.5774 337.3245  3.03413486 24668

AllMySatでBREEZE-M DEBをリアルタイム追跡

Download on the App Store